FW4143 Weather Reports


time (UTC)temp
C
wind
direction
speed
KPH
gust
KPH
rain 1hr
cm
rain 24hr
cm
rain mn
cm
humidity
%
barometer
mb
20260502193903 22 225 0.0 9.7 0.00 0.43 0.00 46 1021.3
20260502193803 22 221 0.0 9.7 0.00 0.43 0.00 46 1021.3
20260502193703 22 218 0.0 12.9 0.00 0.43 0.00 48 1021.3
20260502193603 22 215 0.0 12.9 0.00 0.43 0.00 48 1021.3
20260502193503 22 215 0.0 12.9 0.00 0.43 0.00 48 1021.3
20260502193424 22 213 0.0 12.9 0.00 0.46 0.00 48 1021.3
20260502193303 22 215 1.6 12.9 0.00 0.46 0.00 47 1021.3
20260502193203 22 213 1.6 12.9 0.00 0.46 0.00 49 1021.3
20260502193103 22 212 1.6 12.9 0.00 0.46 0.00 47 1021.3
20260502193024 22 211 1.6 12.9 0.00 0.46 0.00 46 1021.4
20260502192903 22 211 0.0 12.9 0.00 0.46 0.00 46 1021.4
20260502192803 22 209 0.0 12.9 0.00 0.46 0.00 46 1021.4
20260502192703 22 204 0.0 12.9 0.00 0.46 0.00 46 1021.4
20260502192603 22 204 0.0 12.9 0.00 0.46 0.00 47 1021.3
20260502192503 22 205 1.6 12.9 0.00 0.46 0.00 46 1021.4
20260502192403 22 211 1.6 16.1 0.00 0.46 0.00 45 1021.4
20260502192305 22 209 1.6 16.1 0.00 0.46 0.00 46 1021.4
20260502192224 22 210 1.6 16.1 0.00 0.46 0.00 47 1021.3
20260502192103 22 212 1.6 16.1 0.00 0.46 0.00 46 1021.4
20260502192003 22 215 1.6 16.1 0.00 0.46 0.00 48 1021.4
20260502191903 22 216 1.6 16.1 0.00 0.46 0.00 47 1021.4
20260502191803 22 216 1.6 16.1 0.00 0.46 0.00 48 1021.4
20260502191703 22 222 1.6 16.1 0.00 0.46 0.00 47 1021.3
20260502191604 22 222 1.6 16.1 0.00 0.46 0.00 46 1021.3
20260502191504 22 221 0.0 16.1 0.00 0.46 0.00 47 1021.3
20260502191403 22 218 0.0 11.3 0.00 0.46 0.00 46 1021.3
20260502191303 22 218 0.0 11.3 0.00 0.46 0.00 48 1021.3
20260502191203 22 218 0.0 11.3 0.00 0.46 0.00 48 1021.3
20260502191103 22 216 0.0 11.3 0.00 0.46 0.00 49 1021.3
20260502191003 22 206 0.0 11.3 0.00 0.46 0.00 48 1021.3
20260502190903 22 207 0.0 11.3 0.00 0.46 0.00 47 1021.4
20260502190803 22 207 0.0 11.3 0.00 0.46 0.00 49 1021.3
20260502190704 22 190 0.0 9.7 0.00 0.46 0.00 48 1021.4
20260502190603 22 212 1.6 14.5 0.00 0.46 0.00 49 1021.3
20260502190503 22 215 1.6 14.5 0.00 0.46 0.00 50 1021.3
20260502190403 22 218 1.6 14.5 0.00 0.46 0.00 49 1021.3
20260502190324 22 218 1.6 14.5 0.00 0.46 0.00 48 1021.3
20260502190203 22 218 1.6 14.5 0.00 0.46 0.00 48 1021.4
20260502190103 22 218 1.6 14.5 0.00 0.46 0.00 49 1021.5
20260502190004 22 218 1.6 14.5 0.00 0.46 0.00 49 1021.5
20260502185903 21 217 1.6 14.5 0.00 0.46 0.00 49 1021.5
20260502185803 21 217 1.6 14.5 0.00 0.46 0.00 49 1021.5
20260502185703 21 217 1.6 14.5 0.00 0.46 0.00 48 1021.5
20260502185603 22 202 0.0 12.9 0.00 0.46 0.00 50 1021.5
20260502185504 22 184 0.0 9.7 0.00 0.46 0.00 50 1021.5
20260502185403 21 182 0.0 11.3 0.00 0.46 0.00 50 1021.5
20260502185305 21 180 1.6 16.1 0.00 0.46 0.00 48 1021.5
20260502185224 21 179 1.6 16.1 0.00 0.46 0.00 48 1021.5
20260502185124 22 179 1.6 16.1 0.00 0.46 0.00 48 1021.5
20260502185003 22 179 1.6 16.1 0.00 0.46 0.00 49 1021.5
20260502184903 21 179 1.6 16.1 0.00 0.46 0.00 49 1021.6
20260502184803 21 179 1.6 16.1 0.00 0.46 0.00 49 1021.5
20260502184703 21 179 1.6 16.1 0.00 0.46 0.00 48 1021.5
20260502184603 21 179 1.6 16.1 0.00 0.46 0.00 48 1021.5
20260502184503 21 179 1.6 16.1 0.00 0.46 0.00 48 1021.6
20260502184403 21 177 0.0 16.1 0.00 0.46 0.00 49 1021.6
20260502184303 21 177 0.0 14.5 0.00 0.46 0.00 51 1021.5
20260502184224 21 217 0.0 3.2 0.00 0.46 0.00 50 1021.5
20260502184103 21 215 0.0 3.2 0.00 0.46 0.00 52 1021.6
20260502184003 21 220 0.0 11.3 0.00 0.46 0.00 52 1021.6
20260502183903 21 202 0.0 11.3 0.00 0.46 0.00 52 1021.6
20260502183803 21 198 0.0 11.3 0.00 0.46 0.00 50 1021.6
20260502183724 21 201 0.0 11.3 0.00 0.48 0.00 50 1021.6
20260502183604 21 196 0.0 11.3 0.00 0.48 0.00 51 1021.6
20260502183503 21 195 0.0 11.3 0.00 0.48 0.00 50 1021.7
20260502183403 21 195 0.0 11.3 0.00 0.48 0.00 50 1021.8
20260502183303 21 194 0.0 11.3 0.00 0.48 0.00 50 1021.8
20260502183224 21 194 0.0 11.3 0.00 0.51 0.00 50 1021.8
20260502183124 21 194 0.0 11.3 0.00 0.51 0.00 51 1021.8
20260502183003 21 193 0.0 17.7 0.00 0.51 0.00 51 1021.8
20260502182903 21 192 0.0 17.7 0.00 0.53 0.00 50 1021.8
20260502182803 21 193 0.0 17.7 0.00 0.53 0.00 51 1021.8
20260502182703 21 197 0.0 17.7 0.00 0.56 0.00 50 1021.8
20260502182624 21 197 0.0 17.7 0.00 0.58 0.00 50 1021.9
20260502182503 21 206 1.6 17.7 0.00 0.58 0.00 51 1021.9
20260502182403 21 192 1.6 17.7 0.00 0.61 0.00 52 1021.9
20260502182304 21 191 1.6 17.7 0.00 0.64 0.00 53 1021.9
20260502182224 21 191 1.6 17.7 0.00 0.66 0.00 53 1022.0
20260502182124 21 191 1.6 17.7 0.00 0.69 0.00 53 1022.0
20260502182003 21 191 1.6 17.7 0.00 0.71 0.00 52 1022.0
20260502181903 21 190 3.2 17.7 0.00 0.74 0.00 53 1022.0
20260502181803 21 189 3.2 17.7 0.00 0.76 0.00 52 1022.0
20260502181703 21 187 1.6 17.7 0.00 0.79 0.00 53 1022.0
20260502181603 21 187 1.6 17.7 0.00 0.81 0.00 52 1022.0
20260502181504 21 180 1.6 17.7 0.00 0.81 0.00 52 1022.1
20260502181403 21 180 0.0 17.7 0.00 0.84 0.00 52 1022.1
20260502181303 21 171 1.6 17.7 0.00 0.84 0.00 51 1022.1
20260502181203 21 174 1.6 17.7 0.00 0.86 0.00 53 1022.1
20260502181103 21 174 1.6 17.7 0.00 0.89 0.00 52 1022.1
20260502181025 21 177 1.6 17.7 0.00 0.89 0.00 51 1022.1
20260502180903 21 175 1.6 16.1 0.00 0.91 0.00 53 1022.1
20260502180824 21 176 1.6 16.1 0.00 0.94 0.00 53 1022.1
20260502180703 21 178 1.6 16.1 0.00 0.97 0.00 53 1022.1
20260502180603 21 178 1.6 16.1 0.00 0.97 0.00 52 1022.2
20260502180503 21 178 1.6 16.1 0.00 0.99 0.00 52 1022.2
20260502180403 21 180 1.6 16.1 0.00 0.99 0.00 52 1022.2
20260502180303 21 192 1.6 19.3 0.00 1.02 0.00 52 1022.2
20260502180203 21 192 1.6 19.3 0.00 1.02 0.00 52 1022.3
20260502170503 20 178 6.4 20.9 0.00 1.24 0.00 52 1023.0
20260502170424 20 176 8.0 17.7 0.00 1.24 0.00 53 1022.9
20260502170303 20 179 8.0 17.7 0.00 1.24 0.00 53 1022.9
20260502170203 20 181 8.0 17.7 0.00 1.24 0.00 53 1022.9
20260502170103 20 179 8.0 17.7 0.00 1.24 0.00 52 1023.0
20260502164303 19 181 9.7 17.7 0.00 1.24 0.00 52 1023.1
20260502164203 19 178 9.7 17.7 0.00 1.24 0.00 53 1023.1
20260502164103 19 178 9.7 17.7 0.00 1.24 0.00 52 1023.1
20260502164003 19 178 9.7 16.1 0.00 1.24 0.00 52 1023.0
20260502163924 19 183 9.7 25.7 0.00 1.24 0.00 53 1023.1
20260502163803 19 188 9.7 25.7 0.00 1.24 0.00 52 1023.1
20260502163703 19 191 9.7 25.7 0.00 1.24 0.00 53 1023.1
20260502163624 19 191 9.7 25.7 0.00 1.24 0.00 53 1023.1
20260502163503 19 191 9.7 25.7 0.00 1.24 0.00 53 1023.0
20260502163403 19 193 9.7 25.7 0.00 1.24 0.00 52 1023.0
20260502163303 19 195 9.7 25.7 0.00 1.24 0.00 52 1023.0
20260502163203 19 199 9.7 25.7 0.00 1.24 0.00 53 1023.1
20260502163124 19 198 9.7 25.7 0.00 1.24 0.00 53 1023.1
20260502163003 19 199 8.0 25.7 0.00 1.24 0.00 52 1023.1
20260502162903 19 190 8.0 16.1 0.00 1.24 0.00 52 1023.1
20260502162803 18 187 8.0 16.1 0.00 1.24 0.00 53 1023.1
20260502162703 18 183 6.4 16.1 0.00 1.24 0.00 52 1023.1
20260502162603 18 183 8.0 16.1 0.00 1.24 0.00 51 1023.1
20260502162524 19 184 8.0 16.1 0.00 1.24 0.00 52 1023.1
20260502162403 19 185 8.0 16.1 0.00 1.24 0.00 52 1023.1
20260502162304 19 184 6.4 16.1 0.00 1.24 0.00 52 1023.1
20260502162203 19 182 6.4 16.1 0.00 1.24 0.00 52 1023.1
20260502162103 19 181 6.4 14.5 0.00 1.24 0.00 53 1023.1
20260502162003 18 182 8.0 17.7 0.00 1.24 0.00 52 1023.1
20260502161903 18 181 8.0 17.7 0.00 1.24 0.00 52 1023.1
20260502161803 18 180 8.0 17.7 0.00 1.24 0.00 53 1023.1
20260502161703 18 179 8.0 17.7 0.00 1.24 0.00 52 1023.1
20260502161603 18 177 6.4 17.7 0.00 1.24 0.00 52 1023.2
20260502161503 18 175 6.4 17.7 0.00 1.24 0.00 53 1023.1
20260502161424 18 172 6.4 17.7 0.00 1.24 0.00 52 1023.1
20260502161303 18 173 6.4 17.7 0.00 1.24 0.00 52 1023.1
20260502161203 18 170 4.8 17.7 0.00 1.24 0.00 52 1023.1
20260502161103 18 174 4.8 17.7 0.00 1.24 0.00 51 1023.1
20260502161003 18 169 4.8 12.9 0.00 1.24 0.00 52 1023.2
20260502160903 18 169 4.8 12.9 0.00 1.24 0.00 52 1023.2
20260502160824 18 172 3.2 12.9 0.00 1.24 0.00 52 1023.2
20260502160703 18 185 4.8 12.9 0.00 1.24 0.00 53 1023.1
20260502160603 18 192 4.8 16.1 0.00 1.24 0.00 52 1023.1
20260502160503 18 191 4.8 16.1 0.00 1.24 0.00 52 1023.1
20260502160403 18 191 4.8 16.1 0.00 1.27 0.00 52 1023.1
20260502160324 18 190 4.8 16.1 0.00 1.27 0.00 52 1023.1
20260502160203 18 195 4.8 16.1 0.00 1.27 0.00 51 1023.1
20260502160124 18 193 4.8 16.1 0.00 1.27 0.00 51 1023.1
20260502152305 17 0 0.0 1.6 0.00 1.32 0.00 51 1023.1
20260502152203 17 152 0.0 6.4 0.00 1.32 0.00 52 1023.0
20260502152103 17 152 0.0 6.4 0.00 1.32 0.00 52 1023.0
20260502152003 17 152 0.0 6.4 0.00 1.32 0.00 52 1023.1
20260502151924 17 152 0.0 6.4 0.00 1.32 0.00 52 1023.0
20260502151803 17 152 0.0 6.4 0.00 1.32 0.00 52 1023.0
20260502151703 17 152 0.0 6.4 0.00 1.32 0.00 52 1023.1
20260502151603 17 152 0.0 6.4 0.00 1.32 0.00 52 1023.1
20260502151524 17 158 0.0 6.4 0.00 1.32 0.00 52 1023.1
20260502151403 17 156 0.0 6.4 0.00 1.32 0.00 52 1023.1
20260502151303 17 156 0.0 6.4 0.00 1.32 0.00 52 1023.1
20260502151224 17 156 0.0 6.4 0.00 1.32 0.00 51 1023.1
20260502151103 17 161 0.0 3.2 0.00 1.32 0.00 52 1023.1
20260502151003 17 161 0.0 3.2 0.00 1.32 0.00 51 1023.0
20260502150903 17 161 0.0 3.2 0.00 1.32 0.00 51 1023.1
20260502150803 17 161 0.0 3.2 0.00 1.32 0.00 51 1023.1
20260502150703 17 161 0.0 3.2 0.00 1.32 0.00 51 1023.0
20260502150603 17 161 0.0 3.2 0.00 1.32 0.00 51 1023.1
20260502150524 17 157 0.0 3.2 0.00 1.32 0.00 51 1023.0
20260502150403 17 168 0.0 3.2 0.00 1.32 0.00 51 1023.0
20260502150303 17 176 0.0 3.2 0.00 1.32 0.00 51 1023.0
20260502150203 17 178 0.0 3.2 0.00 1.32 0.00 51 1023.0
20260502150103 16 202 0.0 1.6 0.00 1.32 0.00 51 1023.0
20260502140124 15 163 0.0 6.4 0.00 1.73 0.00 38 1022.4
20260502130703 13 153 0.0 3.2 0.00 1.91 0.00 1 1021.8
20260502130603 13 153 0.0 3.2 0.00 1.91 0.00 1 1021.8
20260502130503 13 153 0.0 3.2 0.00 1.91 0.00 1 1021.8
20260502130403 13 153 0.0 3.2 0.00 1.91 0.00 1 1021.7
20260502130303 13 0 0.0 0.0 0.00 1.93 0.00 1 1021.8
20260502130203 13 0 0.0 0.0 0.00 1.93 0.00 1 1021.8
20260502123803 12 0 0.0 0.0 0.00 2.18 0.00 1 1021.4
20260502123724 12 0 0.0 0.0 0.00 2.18 0.00 1 1021.3
20260502123603 12 0 0.0 0.0 0.00 2.21 0.00 1 1021.3
20260502123524 12 0 0.0 0.0 0.00 2.21 0.00 1 1021.3
20260502123404 12 0 0.0 0.0 0.00 2.21 0.00 1 1021.3
20260502123303 12 0 0.0 0.0 0.00 2.21 0.00 1 1021.3
20260502123203 12 0 0.0 0.0 0.00 2.21 0.00 1 1021.2
20260502123103 11 0 0.0 0.0 0.00 2.21 0.00 1 1021.2
20260502123003 11 0 0.0 0.0 0.00 2.21 0.00 1 1021.1
20260502122924 11 0 0.0 0.0 0.00 2.21 0.00 1 1021.1
20260502122803 11 0 0.0 0.0 0.00 2.21 0.00 1 1021.2
20260502122703 11 0 0.0 0.0 0.00 2.21 0.00 1 1021.2
20260502122604 11 0 0.0 0.0 0.00 2.21 0.00 1 1021.1
20260502122505 11 0 0.0 0.0 0.00 2.21 0.00 1 1021.2
20260502122425 11 0 0.0 0.0 0.00 2.21 0.00 1 1021.2
20260502122306 11 0 0.0 0.0 0.00 2.24 0.00 1 1021.2
20260502122205 11 0 0.0 0.0 0.00 2.24 0.00 1 1021.1
20260502122104 11 0 0.0 0.0 0.00 2.24 0.00 1 1021.1
20260502122004 11 0 0.0 0.0 0.00 2.24 0.00 1 1021.1
20260502121904 11 0 0.0 0.0 0.00 2.24 0.00 1 1021.1
20260502121804 11 0 0.0 0.0 0.00 2.26 0.00 1 1021.1
20260502121704 11 0 0.0 0.0 0.00 2.26 0.00 1 1021.1
20260502121604 11 0 0.0 0.0 0.00 2.29 0.00 1 1021.1
20260502121504 11 0 0.0 0.0 0.00 2.29 0.00 1 1021.0
20260502121425 11 0 0.0 0.0 0.00 2.31 0.00 1 1021.0
20260502121325 11 0 0.0 0.0 0.00 2.31 0.00 1 1021.0
20260502121204 11 0 0.0 0.0 0.00 2.34 0.00 1 1021.1
20260502121125 11 0 0.0 0.0 0.00 2.34 0.00 1 1021.0
20260502121005 11 0 0.0 0.0 0.00 2.36 0.00 1 1021.0
20260502120904 11 0 0.0 0.0 0.00 2.39 0.00 1 1020.9
20260502120825 11 0 0.0 0.0 0.00 2.39 0.00 1 1020.9
20260502120704 11 0 0.0 0.0 0.00 2.41 0.00 1 1021.0
20260502120604 11 0 0.0 0.0 0.00 2.41 0.00 1 1020.9
20260502120525 11 0 0.0 0.0 0.00 2.44 0.00 1 1020.9
20260502120404 11 0 0.0 0.0 0.00 2.44 0.00 1 1020.8
20260502120305 11 0 0.0 0.0 0.00 2.46 0.00 1 1020.8
20260502120204 11 0 0.0 0.0 0.00 2.46 0.00 1 1020.8
20260502120126 11 0 0.0 0.0 0.00 2.49 0.00 1 1020.8
20260502115904 11 0 0.0 0.0 0.00 2.51 0.00 1 1020.8
20260502115804 11 0 0.0 0.0 0.00 2.51 0.00 1 1020.8
20260502115704 11 0 0.0 0.0 0.00 2.54 0.00 1 1020.8
20260502115605 11 0 0.0 0.0 0.00 2.54 0.00 1 1020.8
20260502115504 11 0 0.0 0.0 0.00 2.54 0.00 1 1020.8
20260502115404 11 0 0.0 0.0 0.00 2.57 0.00 1 1020.7
20260502115306 11 0 0.0 0.0 0.00 2.57 0.00 1 1020.7
20260502115204 11 0 0.0 0.0 0.00 2.57 0.00 1 1020.7
20260502115104 11 0 0.0 0.0 0.00 2.59 0.00 1 1020.7
20260502115005 11 0 0.0 0.0 0.00 2.59 0.00 1 1020.6
20260502114904 11 0 0.0 0.0 0.00 2.59 0.00 1 1020.7
20260502114825 11 0 0.0 0.0 0.00 2.59 0.00 1 1020.6
20260502114704 11 0 0.0 0.0 0.00 2.62 0.00 1 1020.6
20260502114604 11 0 0.0 0.0 0.00 2.62 0.00 1 1020.6
20260502114304 11 0 0.0 0.0 0.00 2.64 0.00 1 1020.6
20260502114204 11 0 0.0 0.0 0.00 2.64 0.00 1 1020.6
20260502114104 11 0 0.0 0.0 0.00 2.64 0.00 1 1020.6
20260502114004 11 0 0.0 0.0 0.00 2.64 0.00 1 1020.5
20260502113904 11 0 0.0 0.0 0.00 2.64 0.00 1 1020.5
20260502113804 11 0 0.0 0.0 0.00 2.64 0.00 1 1020.5
20260502113704 11 0 0.0 0.0 0.00 2.64 0.00 1 1020.4
20260502113604 11 0 0.0 0.0 0.00 2.64 0.00 1 1020.5
20260502113526 11 0 0.0 0.0 0.00 2.67 0.00 1 1020.5
20260502113405 11 0 0.0 0.0 0.00 2.67 0.00 1 1020.5
20260502113304 11 0 0.0 0.0 0.00 2.67 0.00 1 1020.5
20260502113204 11 0 0.0 0.0 0.00 2.67 0.00 1 1020.4
20260502113126 11 0 0.0 0.0 0.00 2.67 0.00 1 1020.4
20260502113004 11 0 0.0 0.0 0.00 2.69 0.00 1 1020.4
20260502112904 11 0 0.0 0.0 0.00 2.69 0.00 1 1020.4
20260502112804 11 0 0.0 0.0 0.00 2.69 0.00 1 1020.4
20260502112725 11 0 0.0 0.0 0.00 2.72 0.00 1 1020.4
20260502112605 11 0 0.0 0.0 0.00 2.72 0.00 1 1020.4
20260502112526 11 0 0.0 0.0 0.00 2.72 0.00 1 1020.4
20260502112404 11 0 0.0 0.0 0.00 2.72 0.00 1 1020.4
20260502112306 11 0 0.0 0.0 0.00 2.72 0.00 1 1020.3
20260502112204 11 0 0.0 0.0 0.00 2.74 0.00 1 1020.4
20260502112104 11 0 0.0 0.0 0.00 2.74 0.00 1 1020.3
20260502112004 11 0 0.0 0.0 0.00 2.74 0.00 1 1020.3
20260502111904 11 0 0.0 0.0 0.00 2.74 0.00 1 1020.3
20260502111805 11 0 0.0 0.0 0.00 2.77 0.00 1 1020.4
20260502111704 11 0 0.0 0.0 0.00 2.77 0.00 1 1020.4
20260502111604 11 0 0.0 0.0 0.00 2.77 0.00 1 1020.4
20260502111504 11 0 0.0 0.0 0.00 2.79 0.00 1 1020.4
20260502111404 11 0 0.0 0.0 0.00 2.79 0.00 1 1020.4
20260502111304 11 0 0.0 0.0 0.00 2.79 0.00 1 1020.4
20260502111205 11 0 0.0 0.0 0.00 2.82 0.00 1 1020.3
20260502111125 11 0 0.0 0.0 0.00 2.82 0.00 1 1020.3
20260502111004 11 0 0.0 0.0 0.00 2.84 0.00 1 1020.3
20260502110904 11 0 0.0 0.0 0.00 2.84 0.00 1 1020.3
20260502110825 11 0 0.0 0.0 0.00 2.87 0.00 1 1020.3
20260502110704 11 0 0.0 0.0 0.00 2.90 0.00 1 1020.2
20260502110604 11 0 0.0 0.0 0.00 2.90 0.00 1 1020.2
20260502110505 11 0 0.0 0.0 0.00 2.92 0.00 1 1020.2
20260502110405 11 0 0.0 0.0 0.00 2.92 0.00 1 1020.2
20260502110304 11 0 0.0 0.0 0.00 2.95 0.00 1 1020.2
20260502110204 11 0 0.0 0.0 0.00 2.95 0.00 1 1020.2
20260502110104 11 0 0.0 0.0 0.00 2.97 0.00 1 1020.3
20260502110005 11 0 0.0 0.0 0.00 2.97 0.00 1 1020.3
20260502105904 11 0 0.0 0.0 0.00 3.00 0.00 1 1020.3
20260502105804 11 0 0.0 0.0 0.00 3.00 0.00 1 1020.3
20260502105725 11 0 0.0 0.0 0.00 3.02 0.00 1 1020.2
20260502105604 11 0 0.0 0.0 0.00 3.02 0.00 1 1020.2
20260502105504 11 0 0.0 0.0 0.00 3.05 0.00 1 1020.2
20260502105404 11 0 0.0 0.0 0.00 3.05 0.00 1 1020.2
20260502105306 11 0 0.0 0.0 0.00 3.07 0.00 1 1020.2
20260502105225 11 0 0.0 0.0 0.00 3.07 0.00 1 1020.1
20260502105126 11 0 0.0 0.0 0.00 3.10 0.00 1 1020.1
20260502105025 11 0 0.0 0.0 0.00 3.10 0.00 1 1020.1
20260502104925 11 0 0.0 0.0 0.00 3.10 0.00 1 1020.0
20260502104804 11 0 0.0 0.0 0.00 3.12 0.00 1 1020.0
20260502104725 11 0 0.0 0.0 0.00 3.12 0.00 1 1020.0
20260502104604 11 0 0.0 0.0 0.00 3.12 0.00 1 1020.0
20260502104526 11 0 0.0 0.0 0.00 3.15 0.00 1 1020.0
20260502104404 11 0 0.0 0.0 0.00 3.15 0.00 1 1020.0
20260502104304 11 0 0.0 0.0 0.00 3.15 0.00 1 1019.9
20260502104205 11 0 0.0 0.0 0.00 3.17 0.00 1 1019.9
20260502104104 11 0 0.0 0.0 0.00 3.17 0.00 1 1019.9
20260502104005 11 0 0.0 0.0 0.00 3.20 0.00 1 1019.8
20260502103904 11 0 0.0 0.0 0.00 3.20 0.00 1 1019.8
20260502103805 11 0 0.0 0.0 0.00 3.20 0.00 1 1019.8
20260502103704 11 0 0.0 0.0 0.00 3.20 0.00 1 1019.8
20260502103605 11 0 0.0 0.0 0.00 3.23 0.00 1 1019.8
20260502103504 11 0 0.0 0.0 0.00 3.23 0.00 1 1019.8
20260502103404 11 0 0.0 0.0 0.00 3.25 0.00 1 1019.8
20260502103304 11 0 0.0 0.0 0.00 3.25 0.00 1 1019.7
20260502103204 11 0 0.0 0.0 0.00 3.28 0.00 1 1019.7
20260502103105 11 0 0.0 0.0 0.00 3.28 0.00 1 1019.7
20260502103004 11 0 0.0 0.0 0.00 3.28 0.00 1 1019.7
20260502102904 11 0 0.0 0.0 0.00 3.30 0.00 1 1019.6
20260502102825 11 0 0.0 0.0 0.00 3.30 0.00 1 1019.6
20260502102726 11 0 0.0 0.0 0.00 3.33 0.00 1 1019.6
20260502102625 11 0 0.0 0.0 0.00 3.33 0.00 1 1019.5
20260502102525 11 0 0.0 0.0 0.00 3.35 0.00 1 1019.5
20260502102404 11 0 0.0 0.0 0.00 3.35 0.00 1 1019.5
20260502102306 11 0 0.0 0.0 0.00 3.35 0.00 1 1019.4
20260502102226 11 0 0.0 0.0 0.00 3.38 0.00 1 1019.4
20260502102104 11 0 0.0 0.0 0.00 3.38 0.00 1 1019.4
20260502102004 11 0 0.0 0.0 0.00 3.38 0.00 1 1019.4
20260502101904 11 0 0.0 0.0 0.00 3.40 0.00 1 1019.4
20260502101804 11 0 0.0 0.0 0.00 3.40 0.00 1 1019.4
20260502101604 11 0 0.0 0.0 0.00 3.40 0.00 1 1019.3
20260502101504 11 0 0.0 0.0 0.00 3.43 0.00 1 1019.3
20260502101404 11 0 0.0 0.0 0.00 3.43 0.00 1 1019.3
20260502101304 11 0 0.0 0.0 0.00 3.43 0.00 1 1019.3
20260502101204 11 0 0.0 0.0 0.00 3.43 0.00 1 1019.3
20260502101104 11 0 0.0 0.0 0.00 3.43 0.00 1 1019.3
20260502101004 11 0 0.0 0.0 0.00 3.43 0.00 1 1019.3
20260502100904 11 0 0.0 0.0 0.00 3.45 0.00 1 1019.2
20260502100804 11 0 0.0 0.0 0.00 3.45 0.00 1 1019.3
20260502100704 11 0 0.0 0.0 0.00 3.45 0.00 1 1019.2
20260502100604 11 0 0.0 0.0 0.00 3.45 0.00 1 1019.2
20260502100504 11 0 0.0 0.0 0.00 3.45 0.00 1 1019.3
20260502100404 11 0 0.0 0.0 0.00 3.45 0.00 1 1019.2
20260502100304 11 0 0.0 0.0 0.00 3.45 0.00 1 1019.2
20260502100204 11 0 0.0 0.0 0.00 3.45 0.00 1 1019.2
20260502100125 11 0 0.0 0.0 0.00 3.45 0.00 1 1019.2
20260502091504 11 176 0.0 3.2 0.00 3.68 0.00 1 1018.7
20260502091404 11 176 0.0 3.2 0.00 3.68 0.00 1 1018.6
20260502091325 11 176 0.0 3.2 0.00 3.68 0.00 1 1018.6
20260502091204 11 181 0.0 3.2 0.00 3.68 0.00 1 1018.6
20260502091104 11 175 0.0 3.2 0.00 3.71 0.00 1 1018.6
20260502091004 11 175 0.0 3.2 0.00 3.71 0.00 1 1018.7
20260502090904 11 174 0.0 3.2 0.00 3.71 0.00 1 1018.6
20260502090805 11 172 0.0 3.2 0.00 3.71 0.00 1 1018.7
20260502090704 11 172 0.0 3.2 0.00 3.71 0.00 1 1018.7
20260502090604 11 168 0.0 3.2 0.00 3.71 0.00 1 1018.7
20260502090504 11 166 0.0 3.2 0.00 3.71 0.00 1 1018.6
20260502090404 11 166 0.0 3.2 0.00 3.71 0.00 1 1018.7
20260502090304 11 166 0.0 3.2 0.00 3.71 0.00 1 1018.7
20260502090204 11 161 0.0 3.2 0.00 3.71 0.00 1 1018.6
20260502090104 11 162 0.0 3.2 0.00 3.71 0.00 1 1018.6
20260502071504 12 152 0.0 3.2 0.00 3.84 0.00 1 1018.5
20260502071404 12 152 0.0 3.2 0.00 3.84 0.00 1 1018.5
20260502071304 12 152 0.0 3.2 0.00 3.84 0.00 1 1018.5
20260502071204 12 152 0.0 3.2 0.00 3.84 0.00 1 1018.5
20260502071104 12 152 0.0 3.2 0.00 3.84 0.00 1 1018.4
20260502071004 12 152 0.0 3.2 0.00 3.84 0.00 1 1018.4
20260502070904 12 152 0.0 3.2 0.00 3.84 0.00 1 1018.4
20260502070804 12 0 0.0 0.0 0.00 3.84 0.00 1 1018.4
20260502070704 12 0 0.0 0.0 0.00 3.84 0.00 1 1018.4
20260502070604 12 0 0.0 0.0 0.00 3.84 0.00 1 1018.4
20260502070504 12 0 0.0 0.0 0.00 3.84 0.00 1 1018.3
20260502070404 12 0 0.0 0.0 0.00 3.84 0.00 1 1018.4
20260502070304 12 0 0.0 1.6 0.00 3.84 0.00 1 1018.3
20260502070204 12 0 0.0 1.6 0.00 3.84 0.00 1 1018.3
20260502070104 12 0 0.0 1.6 0.00 3.84 0.00 1 1018.3
20260502070004 12 0 0.0 1.6 0.00 3.84 0.00 1 1018.4
20260502065904 12 0 0.0 1.6 0.00 3.84 0.00 1 1018.3
20260502065804 12 0 0.0 1.6 0.00 3.84 0.00 1 1018.3
20260502065726 12 0 0.0 1.6 0.00 3.84 0.00 1 1018.3
20260502065604 12 0 0.0 1.6 0.00 3.84 0.00 1 1018.3
20260502065525 12 0 0.0 1.6 0.00 3.84 0.00 1 1018.4
20260502065404 12 0 0.0 1.6 0.00 3.84 0.00 1 1018.4
20260502065306 12 0 0.0 0.0 0.00 3.84 0.00 1 1018.4
20260502065204 12 0 0.0 0.0 0.00 3.84 0.00 1 1018.4
20260502065104 12 0 0.0 0.0 0.00 3.84 0.00 1 1018.4
20260502065004 12 0 0.0 0.0 0.00 3.84 0.00 1 1018.4
20260502064904 12 0 0.0 0.0 0.00 3.84 0.00 1 1018.4
20260502064805 12 0 0.0 0.0 0.00 3.84 0.00 1 1018.4
20260502064705 12 0 0.0 0.0 0.00 3.84 0.00 1 1018.4
20260502064604 12 0 0.0 0.0 0.00 3.84 0.00 1 1018.5
20260502064505 12 0 0.0 0.0 0.00 3.84 0.00 1 1018.5
20260502064404 12 0 0.0 0.0 0.00 3.84 0.00 1 1018.4
20260502064304 12 0 0.0 0.0 0.00 3.84 0.00 1 1018.4
20260502064204 12 0 0.0 0.0 0.00 3.84 0.00 1 1018.5
20260502064125 12 0 0.0 0.0 0.00 3.84 0.00 1 1018.5
20260502064004 12 0 0.0 0.0 0.00 3.84 0.00 1 1018.5
20260502063904 12 0 0.0 0.0 0.00 3.84 0.00 1 1018.4
20260502063804 12 0 0.0 0.0 0.00 3.84 0.00 1 1018.4
20260502063704 12 0 0.0 0.0 0.00 3.84 0.00 1 1018.5
20260502063625 12 0 0.0 0.0 0.00 3.84 0.00 1 1018.4
20260502063504 12 0 0.0 0.0 0.00 3.84 0.00 1 1018.5
20260502063404 12 0 0.0 0.0 0.00 3.84 0.00 1 1018.4
20260502063304 12 0 0.0 0.0 0.00 3.84 0.00 1 1018.4
20260502063204 12 0 0.0 0.0 0.00 3.84 0.00 1 1018.5
20260502063104 12 0 0.0 0.0 0.00 3.84 0.00 1 1018.4
20260502063004 12 0 0.0 0.0 0.00 3.84 0.00 1 1018.5
20260502062904 12 0 0.0 0.0 0.00 3.84 0.00 1 1018.5
20260502062804 12 0 0.0 0.0 0.00 3.84 0.00 1 1018.6
20260502062725 12 0 0.0 1.6 0.00 3.84 0.00 1 1018.6
20260502062604 12 0 0.0 1.6 0.00 3.84 0.00 1 1018.7
20260502062504 12 0 0.0 1.6 0.00 3.84 0.00 1 1018.7
20260502062425 12 0 0.0 1.6 0.00 3.84 0.00 1 1018.7
20260502062306 12 0 0.0 1.6 0.00 3.84 0.00 1 1018.7
20260502062204 12 0 0.0 1.6 0.00 3.84 0.00 1 1018.7
20260502062125 12 0 0.0 1.6 0.00 3.84 0.00 1 1018.7
20260502062025 12 0 0.0 1.6 0.00 3.84 0.00 1 1018.7
20260502061925 12 0 0.0 1.6 0.00 3.84 0.00 1 1018.7
20260502061804 12 0 0.0 1.6 0.00 3.84 0.00 1 1018.7
20260502061725 12 0 0.0 1.6 0.00 3.84 0.00 1 1018.7
20260502061604 12 0 0.0 1.6 0.00 3.84 0.00 1 1018.8
20260502061504 12 0 0.0 1.6 0.00 3.84 0.00 1 1018.7
20260502061404 12 0 0.0 1.6 0.00 3.84 0.00 1 1018.7
20260502061304 12 0 0.0 1.6 0.00 3.84 0.00 1 1018.7
20260502061204 12 0 0.0 1.6 0.00 3.84 0.00 1 1018.7
20260502061104 12 0 0.0 1.6 0.00 3.84 0.00 1 1018.7
20260502061004 12 0 0.0 1.6 0.00 3.84 0.00 1 1018.8
20260502060904 12 0 0.0 1.6 0.00 3.84 0.00 1 1018.8
20260502060804 12 0 0.0 1.6 0.00 3.84 0.00 1 1018.8
20260502060725 12 169 0.0 1.6 0.00 3.84 0.00 1 1018.8
20260502060604 12 194 0.0 6.4 0.00 3.84 0.00 1 1018.8
20260502060504 12 194 0.0 6.4 0.00 3.84 0.00 1 1018.8
20260502060404 12 194 0.0 6.4 0.00 3.84 0.00 1 1018.8
20260502060305 12 194 0.0 6.4 0.00 3.84 0.00 1 1018.8
20260502060225 12 194 0.0 6.4 0.00 3.84 0.00 1 1018.8
20260502060125 12 194 0.0 6.4 0.00 3.84 0.00 1 1018.8
20260502060005 12 194 0.0 6.4 0.00 3.84 0.00 1 1018.8
20260502055904 12 194 0.0 6.4 0.00 3.84 0.00 1 1018.7
20260502055804 12 194 0.0 6.4 0.00 3.84 0.00 1 1018.7
20260502055704 12 0 0.0 1.6 0.00 3.84 0.00 1 1018.7
20260502055604 12 0 0.0 1.6 0.00 3.84 0.00 1 1018.7
20260502055504 12 0 0.0 1.6 0.00 3.84 0.00 1 1018.6
20260502055426 12 0 0.0 1.6 0.00 3.84 0.00 1 1018.6
20260502055306 12 0 0.0 1.6 0.00 3.84 0.00 1 1018.6
20260502055225 12 0 0.0 1.6 0.00 3.84 0.00 1 1018.6
20260502055104 12 0 0.0 0.0 0.00 3.84 0.00 1 1018.6
20260502055004 12 0 0.0 0.0 0.00 3.84 0.00 1 1018.5
20260502054904 12 0 0.0 0.0 0.00 3.84 0.00 1 1018.5
20260502054825 12 0 0.0 0.0 0.00 3.84 0.00 1 1018.6
20260502054704 12 0 0.0 0.0 0.00 3.84 0.00 1 1018.6
20260502054604 12 0 0.0 0.0 0.00 3.84 0.00 1 1018.5
20260502054504 12 0 0.0 0.0 0.00 3.84 0.00 1 1018.5
20260502054404 12 0 0.0 0.0 0.00 3.84 0.00 1 1018.4
20260502054304 12 0 0.0 0.0 0.00 3.84 0.00 1 1018.5
20260502054204 12 188 0.0 3.2 0.00 3.84 0.00 1 1018.5
20260502054106 12 188 0.0 3.2 0.00 3.84 0.00 1 1018.4
20260502054004 12 188 0.0 3.2 0.00 3.84 0.00 1 1018.5
20260502053904 12 188 0.0 3.2 0.00 3.84 0.00 1 1018.4
20260502053804 12 189 0.0 3.2 0.00 3.84 0.00 1 1018.4
20260502053704 12 189 0.0 3.2 0.00 3.84 0.00 1 1018.5
20260502053604 12 189 0.0 3.2 0.00 3.84 0.00 1 1018.5
20260502053504 12 189 0.0 3.2 0.00 3.84 0.00 1 1018.4
20260502053405 12 189 0.0 3.2 0.00 3.84 0.00 1 1018.5
20260502053325 12 189 0.0 3.2 0.00 3.84 0.00 1 1018.4
20260502053204 12 190 0.0 3.2 0.00 3.84 0.00 1 1018.5
20260502053104 12 190 0.0 3.2 0.00 3.84 0.00 1 1018.5
20260502053025 12 190 0.0 3.2 0.00 3.84 0.00 1 1018.5
20260502052904 12 190 0.0 3.2 0.00 3.84 0.00 1 1018.5
20260502052804 12 0 0.0 0.0 0.00 3.84 0.00 1 1018.5
20260502052704 12 0 0.0 0.0 0.00 3.84 0.00 1 1018.6
20260502052604 12 0 0.0 0.0 0.00 3.84 0.00 1 1018.6
20260502052504 12 0 0.0 0.0 0.00 3.84 0.00 1 1018.5
20260502052404 12 0 0.0 0.0 0.00 3.84 0.00 1 1018.5
20260502052306 12 0 0.0 0.0 0.00 3.84 0.00 1 1018.5
20260502052205 12 0 0.0 0.0 0.00 3.84 0.00 1 1018.5
20260502052104 12 0 0.0 0.0 0.00 3.84 0.00 1 1018.5
20260502052004 12 0 0.0 0.0 0.00 3.84 0.00 1 1018.5
20260502051904 12 0 0.0 0.0 0.00 3.84 0.00 1 1018.5
20260502051804 12 0 0.0 0.0 0.00 3.84 0.00 1 1018.5
20260502051704 12 0 0.0 0.0 0.00 3.84 0.00 1 1018.4
20260502051604 12 0 0.0 0.0 0.00 3.84 0.00 1 1018.4
20260502051504 12 0 0.0 0.0 0.00 3.84 0.00 1 1018.4
20260502051404 12 0 0.0 0.0 0.00 3.84 0.00 1 1018.4
20260502051325 12 0 0.0 0.0 0.00 3.84 0.00 1 1018.3
20260502051204 12 0 0.0 0.0 0.00 3.84 0.00 1 1018.3
20260502051104 12 0 0.0 0.0 0.00 3.84 0.00 1 1018.3
20260502051004 12 0 0.0 0.0 0.00 3.84 0.00 1 1018.3
20260502050904 12 0 0.0 0.0 0.00 3.84 0.00 1 1018.3
20260502050804 12 0 0.0 0.0 0.00 3.84 0.00 1 1018.3
20260502050704 12 0 0.0 0.0 0.00 3.86 0.00 1 1018.3
20260502050604 12 0 0.0 0.0 0.00 3.86 0.00 1 1018.3
20260502050504 12 0 0.0 0.0 0.00 3.86 0.00 1 1018.4
20260502050425 12 0 0.0 0.0 0.00 3.86 0.00 1 1018.4
20260502050325 12 0 0.0 0.0 0.00 3.86 0.00 1 1018.3
20260502050205 12 0 0.0 0.0 0.00 3.86 0.00 1 1018.4
20260502050104 12 0 0.0 0.0 0.00 3.86 0.00 1 1018.4
20260502050004 12 0 0.0 0.0 0.00 3.86 0.00 1 1018.3
20260502045904 12 0 0.0 0.0 0.00 3.86 3.86 1 1018.3
20260502045804 12 0 0.0 0.0 0.00 3.86 3.86 1 1018.3
20260502045704 12 0 0.0 0.0 0.00 3.86 3.86 1 1018.3
20260502045604 12 0 0.0 0.0 0.00 3.86 3.86 1 1018.3
20260502045504 12 0 0.0 0.0 0.00 3.86 3.86 1 1018.3
20260502045404 12 0 0.0 0.0 0.00 3.86 3.86 1 1018.3
20260502045306 12 0 0.0 0.0 0.00 3.86 3.86 1 1018.3
20260502045204 12 0 0.0 0.0 0.00 3.86 3.86 1 1018.3
20260502045125 12 0 0.0 0.0 0.00 3.86 3.86 1 1018.3
20260502045004 12 0 0.0 0.0 0.00 3.86 3.86 1 1018.3
20260502044904 12 0 0.0 0.0 0.00 3.86 3.86 1 1018.3
20260502044825 12 0 0.0 0.0 0.00 3.86 3.86 1 1018.3
20260502044705 12 0 0.0 0.0 0.00 3.86 3.86 1 1018.3
20260502044604 12 0 0.0 0.0 0.00 3.86 3.86 1 1018.3
20260502044504 12 0 0.0 0.0 0.00 3.86 3.86 1 1018.2
20260502044404 12 0 0.0 0.0 0.00 3.86 3.86 1 1018.2
20260502044325 12 0 0.0 0.0 0.00 3.86 3.86 1 1018.2
20260502044204 12 0 0.0 0.0 0.00 3.86 3.86 1 1018.2
20260502044125 12 0 0.0 0.0 0.00 3.86 3.86 1 1018.2
20260502044025 12 0 0.0 0.0 0.00 3.86 3.86 1 1018.2
20260502043904 12 0 0.0 0.0 0.00 3.86 3.86 1 1018.2
20260502043804 12 0 0.0 0.0 0.00 3.86 3.86 1 1018.2
20260502043704 12 0 0.0 0.0 0.00 3.86 3.86 1 1018.2
20260502043604 12 0 0.0 0.0 0.00 3.86 3.86 1 1018.3
20260502043504 12 0 0.0 0.0 0.00 3.86 3.86 1 1018.3
20260502043404 12 0 0.0 0.0 0.00 3.86 3.86 1 1018.2
20260502043325 12 0 0.0 0.0 0.00 3.86 3.86 1 1018.2
20260502043225 12 0 0.0 0.0 0.00 3.86 3.86 1 1018.2
20260502043104 12 0 0.0 0.0 0.00 3.86 3.86 1 1018.2
20260502043004 12 0 0.0 0.0 0.00 3.86 3.86 1 1018.2
20260502042904 12 0 0.0 0.0 0.00 3.86 3.86 1 1018.2
20260502042805 12 0 0.0 0.0 0.00 3.86 3.86 1 1018.2
20260502042704 13 0 0.0 0.0 0.00 3.86 3.86 1 1018.2
20260502042604 13 0 0.0 0.0 0.00 3.86 3.86 1 1018.2
20260502042504 13 0 0.0 0.0 0.00 3.86 3.86 1 1018.3
20260502042425 13 0 0.0 0.0 0.00 3.86 3.86 1 1018.3
20260502042306 13 0 0.0 0.0 0.00 3.86 3.86 1 1018.3
20260502042204 13 0 0.0 0.0 0.00 3.86 3.86 1 1018.3
20260502042126 13 0 0.0 0.0 0.00 3.86 3.86 1 1018.3
20260502042025 13 0 0.0 0.0 0.00 3.86 3.86 1 1018.3
20260502041904 13 0 0.0 0.0 0.00 3.86 3.86 1 1018.3
20260502041804 13 0 0.0 0.0 0.00 3.86 3.86 1 1018.3
20260502041704 13 0 0.0 0.0 0.00 3.86 3.86 1 1018.3
20260502041604 13 0 0.0 0.0 0.00 3.86 3.86 1 1018.3
20260502041504 13 0 0.0 0.0 0.00 3.86 3.86 1 1018.3
20260502041404 13 0 0.0 0.0 0.00 3.86 3.86 1 1018.4
20260502041304 13 0 0.0 0.0 0.00 3.86 3.86 1 1018.4
20260502041204 13 0 0.0 0.0 0.00 3.86 3.86 1 1018.4
20260502041125 13 0 0.0 0.0 0.00 3.86 3.86 1 1018.4
20260502041004 13 0 0.0 0.0 0.00 3.86 3.86 1 1018.4
20260502040904 13 0 0.0 0.0 0.00 3.86 3.86 1 1018.4
20260502040825 13 0 0.0 0.0 0.00 3.86 3.86 1 1018.4
20260502040704 13 0 0.0 0.0 0.00 3.86 3.86 1 1018.4
20260502040604 13 0 0.0 0.0 0.00 3.86 3.86 1 1018.4
20260502040504 13 0 0.0 0.0 0.00 3.86 3.86 1 1018.4
20260502040404 13 211 0.0 1.6 0.00 3.86 3.86 1 1018.4
20260502040304 13 211 0.0 1.6 0.00 3.86 3.86 1 1018.4
20260502040204 13 211 0.0 1.6 0.00 3.86 3.86 1 1018.4
20260502040104 13 211 0.0 1.6 0.00 3.86 3.86 1 1018.4
20260502040004 13 211 0.0 1.6 0.00 3.86 3.86 1 1018.3
20260502035904 13 211 0.0 1.6 0.00 3.86 3.86 1 1018.3
20260502035804 13 211 0.0 1.6 0.00 3.86 3.86 1 1018.3
20260502035704 13 211 0.0 1.6 0.00 3.86 3.86 1 1018.3
20260502035604 13 203 0.0 1.6 0.00 3.86 3.86 1 1018.3
20260502035504 13 203 0.0 1.6 0.00 3.86 3.86 1 1018.3
20260502035404 13 197 0.0 1.6 0.00 3.86 3.86 1 1018.3
20260502035306 13 197 0.0 1.6 0.00 3.86 3.86 1 1018.4
20260502035225 13 197 0.0 1.6 0.00 3.86 3.86 1 1018.4
20260502035104 13 197 0.0 1.6 0.00 3.86 3.86 1 1018.4
20260502035025 13 197 0.0 1.6 0.00 3.86 3.86 1 1018.4
20260502034925 13 197 0.0 1.6 0.00 3.86 3.86 1 1018.4
20260502034804 13 197 0.0 1.6 0.00 3.86 3.86 1 1018.4
20260502034725 13 197 0.0 1.6 0.00 3.86 3.86 1 1018.4
20260502034604 13 0 0.0 0.0 0.00 3.86 3.86 1 1018.3
20260502034504 13 0 0.0 0.0 0.00 3.86 3.86 1 1018.4
20260502034425 13 0 0.0 0.0 0.00 3.86 3.86 1 1018.3
20260502034304 13 0 0.0 0.0 0.00 3.86 3.86 1 1018.3
20260502034204 13 0 0.0 0.0 0.00 3.86 3.86 1 1018.3
20260502034104 13 0 0.0 0.0 0.00 3.86 3.86 1 1018.2
20260502034025 13 0 0.0 0.0 0.00 3.86 3.86 1 1018.2
20260502033904 13 0 0.0 0.0 0.00 3.86 3.86 1 1018.3
20260502033825 13 0 0.0 0.0 0.00 3.86 3.86 1 1018.3
20260502033725 13 218 0.0 3.2 0.00 3.86 3.86 1 1018.2
20260502033604 13 218 0.0 3.2 0.00 3.86 3.86 1 1018.3
20260502033504 13 218 0.0 3.2 0.00 3.86 3.86 1 1018.3
20260502033404 13 218 0.0 3.2 0.00 3.86 3.86 1 1018.2
20260502033304 13 218 0.0 3.2 0.00 3.86 3.86 1 1018.3
20260502033204 13 218 0.0 3.2 0.00 3.86 3.86 1 1018.3
20260502033104 13 218 0.0 3.2 0.00 3.86 3.86 1 1018.3
20260502033004 13 218 0.0 3.2 0.00 3.86 3.86 1 1018.3
20260502032925 13 218 0.0 3.2 0.00 3.86 3.86 1 1018.3
20260502032825 13 218 0.0 3.2 0.00 3.86 3.86 1 1018.3
20260502032704 13 0 0.0 1.6 0.00 3.86 3.86 1 1018.4
20260502032604 13 0 0.0 1.6 0.00 3.86 3.86 1 1018.3
20260502032525 13 0 0.0 1.6 0.00 3.86 3.86 1 1018.2
20260502032425 13 0 0.0 1.6 0.00 3.86 3.86 1 1018.2
20260502032306 13 0 0.0 1.6 0.00 3.86 3.86 1 1018.3
20260502032204 13 0 0.0 1.6 0.00 3.86 3.86 1 1018.2
20260502032125 13 0 0.0 1.6 0.00 3.86 3.86 1 1018.2
20260502032025 13 0 0.0 1.6 0.00 3.86 3.86 1 1018.2
20260502031904 13 0 0.0 1.6 0.00 3.86 3.86 1 1018.2
20260502031825 13 0 0.0 1.6 0.00 3.86 3.86 1 1018.1
20260502031704 13 198 0.0 3.2 0.00 3.86 3.86 1 1018.1
20260502031604 13 206 0.0 3.2 0.00 3.86 3.86 1 1018.1
20260502031504 13 206 0.0 3.2 0.00 3.86 3.86 1 1018.1
20260502031404 13 206 0.0 3.2 0.00 3.86 3.86 1 1018.1
20260502031304 13 206 0.0 3.2 0.00 3.86 3.86 1 1018.1
20260502031204 13 213 0.0 6.4 0.00 3.86 3.86 1 1018.1
20260502031125 13 213 0.0 6.4 0.00 3.86 3.86 1 1018.1
20260502031004 13 204 0.0 6.4 0.00 3.86 3.86 1 1018.0
20260502030904 13 204 0.0 6.4 0.00 3.86 3.86 1 1018.0
20260502030804 13 205 0.0 6.4 0.00 3.86 3.86 1 1018.0
20260502030704 13 205 0.0 6.4 0.00 3.86 3.86 1 1018.0
20260502030604 13 196 0.0 6.4 0.00 3.86 3.86 1 1018.0
20260502030504 13 193 0.0 6.4 0.00 3.86 3.86 1 1018.0
20260502030404 13 193 0.0 6.4 0.00 3.86 3.86 1 1018.0
20260502030304 13 193 0.0 6.4 0.00 3.86 3.86 1 1017.9
20260502030204 13 175 0.0 6.4 0.00 3.86 3.86 1 1017.9
20260502030104 13 175 0.0 6.4 0.00 3.89 3.86 1 1018.0
20260502030004 13 177 0.0 6.4 0.00 3.89 3.86 1 1018.0
20260502025904 13 177 0.0 6.4 0.00 3.89 3.86 1 1018.0
20260502025804 13 179 0.0 6.4 0.00 3.89 3.86 1 1018.0
20260502025725 13 178 0.0 6.4 0.00 3.89 3.86 1 1017.9
20260502025604 13 178 0.0 6.4 0.00 3.89 3.86 1 1017.9
20260502025504 13 182 0.0 4.8 0.00 3.89 3.86 1 1017.9
20260502025425 13 182 0.0 4.8 0.00 3.89 3.86 1 1018.0
20260502025306 13 190 0.0 4.8 0.00 3.89 3.86 1 1017.9
20260502025204 13 191 0.0 4.8 0.00 3.89 3.86 1 1017.9
20260502025125 13 194 0.0 4.8 0.00 3.91 3.86 1 1017.8
20260502025004 13 199 0.0 4.8 0.00 3.91 3.86 1 1017.8
20260502024904 13 200 0.0 6.4 0.00 3.91 3.86 1 1017.8
20260502024825 13 200 0.0 6.4 0.00 3.91 3.86 1 1017.8
20260502024704 13 200 0.0 6.4 0.00 3.91 3.86 1 1017.7
20260502024604 13 201 1.6 12.9 0.00 3.91 3.86 1 1017.7
20260502024504 13 198 1.6 12.9 0.00 3.94 3.86 1 1017.7
20260502024405 13 198 1.6 12.9 0.00 3.94 3.86 1 1017.7
20260502024304 13 197 1.6 12.9 0.00 3.94 3.86 1 1017.5
20260502024204 13 198 1.6 12.9 0.00 3.96 3.86 1 1017.6
20260502024104 13 200 1.6 12.9 0.00 3.96 3.86 1 1017.5
20260502024025 13 198 1.6 12.9 0.00 3.96 3.86 1 1017.5
20260502023904 13 196 1.6 12.9 0.00 3.96 3.86 1 1017.5
20260502023825 13 196 0.0 12.9 0.00 3.96 3.86 1 1017.4
20260502023704 13 199 0.0 12.9 0.00 3.96 3.86 1 1017.4
20260502023604 12 205 0.0 11.3 0.00 3.96 3.86 1 1017.4
20260502023504 13 220 0.0 11.3 0.00 3.96 3.86 1 1017.3
20260502023404 13 219 0.0 11.3 0.00 3.96 3.86 1 1017.3
20260502023304 12 217 1.6 11.3 0.00 3.96 3.86 1 1017.3
20260502023205 12 212 1.6 19.3 0.00 3.96 3.86 1 1017.3
20260502023104 12 205 3.2 19.3 0.00 3.96 3.86 1 1017.2
20260502023004 12 205 3.2 19.3 0.00 3.96 3.86 1 1017.3
20260502022904 12 207 4.8 19.3 0.00 3.96 3.86 1 1017.2
20260502022804 12 208 6.4 24.1 0.00 3.96 3.86 1 1017.2
20260502022725 12 206 8.0 24.1 0.00 3.96 3.86 1 1017.2
20260502022604 12 204 9.7 24.1 0.00 3.96 3.86 1 1017.2
20260502022525 12 204 9.7 24.1 0.00 3.96 3.86 1 1017.2
20260502022404 12 204 9.7 24.1 0.00 3.96 3.86 1 1017.1
20260502022325 12 202 11.3 24.1 0.00 3.96 3.86 1 1017.1
20260502022225 12 200 11.3 24.1 0.00 3.96 3.86 1 1017.1
20260502022104 12 198 11.3 24.1 0.00 3.96 3.86 1 1017.1
20260502022004 12 199 11.3 27.4 0.00 3.96 3.86 1 1017.1
20260502021904 12 196 11.3 27.4 0.00 3.96 3.86 1 1017.1
20260502021804 12 194 11.3 27.4 0.00 3.96 3.86 1 1017.1
20260502021704 12 191 11.3 27.4 0.00 3.96 3.86 1 1017.1
20260502021604 12 190 11.3 27.4 0.00 3.96 3.86 1 1017.0
20260502021504 12 188 11.3 27.4 0.00 3.96 3.86 1 1017.1
20260502021404 12 188 12.9 27.4 0.00 3.96 3.86 1 1017.0
20260502021304 12 189 12.9 27.4 0.00 3.96 3.86 1 1017.0
20260502021225 12 189 12.9 27.4 0.00 3.96 3.86 1 1017.0
20260502021125 12 190 12.9 27.4 0.00 3.96 3.86 1 1017.0
20260502021004 12 189 11.3 20.9 0.00 3.96 3.86 1 1016.9
20260502020904 12 190 11.3 20.9 0.00 3.96 3.86 1 1017.0
20260502020804 12 189 9.7 20.9 0.00 3.96 3.86 1 1016.9
20260502020704 12 193 9.7 20.9 0.00 3.96 3.86 1 1016.9
20260502020604 12 195 11.3 22.5 0.00 3.96 3.86 1 1016.9
20260502020504 12 196 9.7 22.5 0.00 3.96 3.86 1 1016.8
20260502020404 12 198 9.7 22.5 0.00 3.96 3.86 1 1016.8
20260502020304 12 198 9.7 22.5 0.00 3.96 3.86 1 1016.8
20260502020204 12 199 9.7 22.5 0.00 3.96 3.86 1 1016.8
20260502020125 12 198 9.7 22.5 0.00 3.96 3.86 1 1016.8
20260502020025 12 195 11.3 22.5 0.00 3.96 3.86 1 1016.7
20260502015904 12 194 11.3 22.5 0.00 3.96 3.86 1 1016.7
20260502015804 12 195 11.3 22.5 0.00 3.96 3.86 1 1016.7
20260502015704 12 193 11.3 22.5 0.00 3.96 3.86 1 1016.7
20260502015604 12 191 11.3 22.5 0.00 3.96 3.86 1 1016.7
20260502015504 12 192 11.3 22.5 0.00 3.96 3.86 1 1016.7
20260502015425 12 193 11.3 22.5 0.00 3.96 3.86 1 1016.7
20260502015305 12 195 11.3 22.5 0.00 3.96 3.86 1 1016.7
20260502015204 12 194 11.3 22.5 0.00 3.96 3.86 1 1016.6
20260502015125 12 194 9.7 22.5 0.00 3.96 3.86 1 1016.6
20260502015004 12 196 9.7 19.3 0.00 3.96 3.86 1 1016.5
20260502014904 12 196 9.7 17.7 0.00 3.96 3.86 1 1016.5
20260502014805 12 197 9.7 17.7 0.00 3.96 3.86 1 1016.5
20260502014705 12 198 9.7 17.7 0.00 3.96 3.86 1 1016.5
20260502014604 12 200 9.7 17.7 0.00 3.96 3.86 1 1016.4
20260502014504 12 200 9.7 17.7 0.00 3.96 3.86 1 1016.5
20260502014404 12 199 9.7 24.1 0.00 3.96 3.86 1 1016.4
20260502014304 12 197 9.7 24.1 0.00 3.96 3.86 1 1016.5
20260502014204 12 198 9.7 24.1 0.00 3.96 3.86 1 1016.4
20260502014125 12 199 11.3 24.1 0.00 3.96 3.86 1 1016.4
20260502014004 12 203 11.3 24.1 0.00 3.96 3.86 1 1016.5
20260502013925 12 203 11.3 24.1 0.00 3.96 3.86 1 1016.4
20260502013804 12 205 11.3 24.1 0.00 3.96 3.86 1 1016.5
20260502013704 12 207 12.9 24.1 0.00 3.96 3.86 1 1016.4
20260502013604 12 205 12.9 24.1 0.00 3.96 3.86 1 1016.4
20260502013504 12 205 12.9 24.1 0.00 3.96 3.86 1 1016.4
20260502013404 12 204 11.3 22.5 0.00 3.96 3.86 1 1016.4
20260502013304 12 205 11.3 20.9 0.00 3.96 3.86 1 1016.4
20260502013204 12 204 11.3 20.9 0.00 3.96 3.86 1 1016.4
20260502013104 12 203 11.3 24.1 0.00 3.96 3.86 1 1016.3
20260502013004 12 201 9.7 24.1 0.00 3.96 3.86 1 1016.3
20260502012904 11 202 9.7 24.1 0.00 3.96 3.86 1 1016.3
20260502012804 11 202 8.0 24.1 0.00 3.96 3.86 1 1016.3
20260502012704 11 199 6.4 24.1 0.00 3.96 3.86 1 1016.3
20260502012625 11 198 6.4 24.1 0.00 3.96 3.86 1 1016.3
20260502012525 11 196 6.4 25.7 0.00 3.96 3.86 1 1016.3
20260502012404 11 195 4.8 25.7 0.00 3.96 3.86 1 1016.3
20260502012306 11 197 4.8 25.7 0.00 3.96 3.86 1 1016.3
20260502012204 11 200 6.4 25.7 0.00 3.96 3.86 1 1016.3
20260502012104 11 194 6.4 25.7 0.00 3.96 3.86 1 1016.3
20260502012004 11 196 8.0 25.7 0.00 3.96 3.86 1 1016.3
20260502011904 11 196 8.0 25.7 0.00 3.96 3.86 1 1016.2
20260502011804 11 196 9.7 25.7 0.00 3.96 3.86 1 1016.2
20260502011704 11 196 11.3 25.7 0.00 3.96 3.86 1 1016.2
20260502011604 11 196 11.3 25.7 0.00 3.96 3.86 1 1016.2
20260502011504 11 197 11.3 24.1 0.00 3.96 3.86 1 1016.1
20260502011404 11 198 12.9 24.1 0.00 3.96 3.86 1 1016.1
20260502011304 11 199 14.5 24.1 0.00 3.96 3.86 1 1016.1
20260502011204 11 198 12.9 24.1 0.03 3.96 3.86 1 1016.0
20260502011105 11 199 12.9 24.1 0.03 3.96 3.86 1 1016.0
20260502011004 11 199 11.3 24.1 0.03 3.96 3.86 1 1016.0
20260502010904 11 199 11.3 24.1 0.03 3.96 3.86 1 1016.0
20260502010804 11 200 11.3 24.1 0.03 3.96 3.86 1 1015.9
20260502010704 11 201 11.3 25.7 0.03 3.96 3.86 1 1015.9
20260502010604 11 200 11.3 25.7 0.03 3.96 3.86 1 1015.9
20260502010504 11 201 11.3 25.7 0.03 3.96 3.86 1 1015.8
20260502010404 11 201 9.7 25.7 0.03 3.96 3.86 1 1015.8
20260502010304 12 198 9.7 25.7 0.03 3.96 3.86 1 1015.8
20260502010225 12 197 9.7 25.7 0.03 3.96 3.86 1 1015.7
20260502010125 12 198 11.3 25.7 0.03 3.96 3.86 1 1015.8
20260502010025 12 196 12.9 25.7 0.03 3.96 3.86 1 1015.7
20260502005904 12 195 12.9 25.7 0.05 3.96 3.86 1 1015.8
20260502005804 12 194 12.9 25.7 0.05 3.96 3.86 1 1015.8
20260502005704 12 189 12.9 24.1 0.05 3.96 3.86 1 1015.7
20260502005604 12 189 12.9 24.1 0.05 3.96 3.86 1 1015.7
20260502005504 12 189 12.9 24.1 0.05 3.96 3.86 1 1015.8
20260502005404 12 188 12.9 24.1 0.05 3.96 3.86 1 1015.7
20260502005306 12 187 14.5 24.1 0.05 3.96 3.86 1 1015.7
20260502005204 12 187 14.5 24.1 0.05 3.96 3.86 1 1015.7
20260502005104 12 188 14.5 24.1 0.05 3.96 3.86 1 1015.6
20260502005004 12 187 12.9 24.1 0.05 3.96 3.86 1 1015.7
20260502004904 12 187 11.3 24.1 0.05 3.96 3.86 1 1015.7
20260502004804 12 187 9.7 24.1 0.05 3.96 3.86 1 1015.6
20260502004704 12 189 9.7 24.1 0.05 3.96 3.86 1 1015.7
20260502004604 12 189 8.0 24.1 0.05 3.96 3.86 1 1015.6
20260502004504 12 188 8.0 24.1 0.05 3.96 3.86 1 1015.6
20260502004404 12 187 8.0 22.5 0.05 3.96 3.86 1 1015.5
20260502004304 12 192 6.4 29.0 0.05 3.96 3.86 1 1015.6
20260502004204 12 191 6.4 29.0 0.05 3.96 3.86 1 1015.5
20260502004104 12 191 8.0 29.0 0.05 3.96 3.86 1 1015.4
20260502004004 12 196 9.7 29.0 0.05 3.96 3.86 1 1015.5
20260502003904 12 194 9.7 29.0 0.05 3.96 3.86 1 1015.5
20260502003804 12 195 11.3 29.0 0.05 3.96 3.86 1 1015.4
20260502003704 12 195 11.3 29.0 0.05 3.96 3.86 1 1015.5
20260502003625 12 195 12.9 29.0 0.05 3.96 3.86 1 1015.4
20260502003525 12 196 12.9 29.0 0.05 3.96 3.86 1 1015.4
20260502003404 12 198 12.9 29.0 0.05 3.96 3.86 1 1015.4
20260502003325 12 196 12.9 25.7 0.05 3.96 3.86 1 1015.3
20260502003204 12 198 11.3 25.7 0.05 3.96 3.86 1 1015.3
20260502003104 12 197 12.9 25.7 0.05 3.96 3.86 1 1015.3
20260502003004 12 191 12.9 25.7 0.05 3.96 3.86 1 1015.3
20260502002925 12 191 12.9 25.7 0.05 3.96 3.86 1 1015.2
20260502002804 12 191 12.9 25.7 0.05 3.96 3.86 1 1015.3
20260502002704 12 193 12.9 25.7 0.05 3.96 3.86 1 1015.2
20260502002604 12 191 12.9 25.7 0.05 3.96 3.86 1 1015.2
20260502002525 12 191 11.3 25.7 0.05 3.96 3.86 1 1015.3
20260502002404 12 191 11.3 27.4 0.05 3.96 3.86 1 1015.2
20260502002305 12 190 11.3 27.4 0.05 3.96 3.86 1 1015.2
20260502002204 12 190 9.7 27.4 0.05 3.96 3.86 1 1015.3
20260502002104 12 188 9.7 27.4 0.05 3.96 3.86 1 1015.1
20260502002004 12 193 8.0 27.4 0.05 3.96 3.86 1 1015.1
20260502001904 12 193 8.0 27.4 0.05 3.96 3.86 1 1015.1
20260502001804 12 192 6.4 27.4 0.05 3.96 3.86 1 1015.1
20260502001704 12 191 6.4 27.4 0.05 3.96 3.86 1 1015.1
20260502001625 12 190 4.8 27.4 0.05 3.96 3.86 1 1015.1
20260502001504 12 192 4.8 27.4 0.05 3.96 3.86 1 1015.0
20260502001425 12 192 6.4 27.4 0.05 3.96 3.86 1 1015.0
20260502001304 12 198 6.4 27.4 0.05 3.96 3.86 1 1014.9
20260502001204 12 193 8.0 27.4 0.03 3.94 3.84 1 1014.8
20260502001104 12 197 6.4 27.4 0.03 3.94 3.84 1 1014.7
20260502001004 12 194 8.0 27.4 0.03 3.94 3.84 1 1014.6
20260502000904 12 193 8.0 27.4 0.03 3.94 3.84 1 1014.6
20260502000804 12 193 8.0 27.4 0.03 3.94 3.84 1 1014.5
20260502000704 12 194 9.7 27.4 0.03 3.94 3.84 1 1014.4
20260502000604 12 193 9.7 27.4 0.03 3.94 3.84 1 1014.4
20260502000504 12 192 11.3 27.4 0.03 3.94 3.84 1 1014.4
20260502000404 12 193 11.3 22.5 0.03 3.94 3.84 1 1014.5
20260502000304 12 193 11.3 24.1 0.03 3.94 3.84 1 1014.5
20260502000204 12 196 11.3 24.1 0.03 3.94 3.84 1 1014.6
20260502000104 12 195 11.3 24.1 0.03 3.94 3.84 1 1014.7
20260502000004 12 196 11.3 24.1 0.03 3.94 3.84 1 1014.8
20260501235904 12 197 12.9 24.1 0.00 3.91 3.81 1 1014.8
20260501235804 12 197 12.9 24.1 0.00 3.91 3.81 1 1014.8
20260501235725 12 195 12.9 25.7 0.00 3.91 3.81 1 1014.9
20260501235625 12 195 12.9 25.7 0.00 3.91 3.81 1 1014.9
20260501235504 12 195 12.9 25.7 0.00 3.91 3.81 1 1015.0
20260501235425 12 194 12.9 25.7 0.00 3.91 3.81 1 1015.0
20260501235305 12 192 11.3 25.7 0.00 3.91 3.81 1 1015.1
20260501235204 12 191 11.3 25.7 0.00 3.91 3.81 1 1015.1
20260501235125 12 192 11.3 25.7 0.00 3.91 3.81 1 1015.2
20260501235004 12 191 11.3 25.7 0.00 3.91 3.81 1 1015.2
20260501234925 12 190 9.7 25.7 0.00 3.91 3.81 1 1015.3
20260501234804 12 191 8.0 25.7 0.00 3.91 3.81 1 1015.3
20260501234704 12 192 8.0 27.4 0.00 3.91 3.81 1 1015.3
20260501234604 12 191 6.4 27.4 0.00 3.91 3.81 1 1015.3
20260501234504 12 191 6.4 27.4 0.00 3.91 3.81 1 1015.3
20260501234404 12 191 6.4 27.4 0.00 3.91 3.81 1 1015.3
20260501234304 12 191 6.4 27.4 0.03 3.91 3.81 1 1015.2
20260501234204 12 189 6.4 27.4 0.03 3.91 3.81 1 1015.1
20260501234105 12 193 6.4 27.4 0.03 3.91 3.81 1 1015.1
20260501234004 12 195 8.0 27.4 0.03 3.91 3.81 1 1015.1
20260501233904 12 197 8.0 27.4 0.03 3.91 3.81 1 1015.1
20260501233804 12 198 9.7 27.4 0.03 3.91 3.81 1 1015.2
20260501233704 12 197 12.9 29.0 0.03 3.91 3.81 1 1015.2
20260501233604 12 198 12.9 32.2 0.03 3.91 3.81 1 1015.2
20260501233525 12 197 14.5 32.2 0.03 3.91 3.81 1 1015.1
20260501233425 12 197 14.5 32.2 0.03 3.91 3.81 1 1015.0
20260501233304 12 196 14.5 32.2 0.03 3.91 3.81 1 1014.9
20260501233204 12 197 14.5 32.2 0.03 3.91 3.81 1 1014.9
20260501233104 12 195 14.5 32.2 0.03 3.91 3.81 1 1014.8
20260501233004 12 195 16.1 32.2 0.03 3.91 3.81 1 1014.8
20260501232904 12 195 16.1 32.2 0.03 3.91 3.81 1 1014.8
20260501232804 12 194 16.1 32.2 0.03 3.91 3.81 1 1014.8
20260501232704 12 193 16.1 32.2 0.03 3.91 3.81 1 1014.8
20260501232604 12 192 16.1 30.6 0.03 3.91 3.81 1 1014.9
20260501232504 12 193 16.1 30.6 0.03 3.91 3.81 1 1014.8
20260501232404 12 193 16.1 30.6 0.03 3.91 3.81 1 1014.8
20260501232306 12 195 16.1 30.6 0.03 3.91 3.81 1 1014.7
20260501232204 12 195 16.1 30.6 0.03 3.91 3.81 1 1014.6
20260501232104 12 195 16.1 30.6 0.03 3.91 3.81 1 1014.6
20260501232004 12 195 16.1 30.6 0.05 3.91 3.81 1 1014.4
20260501231904 12 192 16.1 30.6 0.05 3.91 3.81 1 1014.5
20260501231804 12 191 14.5 30.6 0.05 3.91 3.81 1 1014.5
20260501231704 12 191 14.5 30.6 0.05 3.91 3.81 1 1014.5
20260501231604 12 190 14.5 35.4 0.05 3.91 3.81 1 1014.5
20260501231504 12 191 14.5 35.4 0.05 3.91 3.81 1 1014.6
20260501231404 12 189 14.5 35.4 0.05 3.91 3.81 1 1014.7
20260501231325 12 188 14.5 35.4 0.05 3.91 3.81 1 1014.8
20260501231204 12 188 14.5 35.4 0.05 3.91 3.81 1 1014.9
20260501231104 12 189 16.1 35.4 0.05 3.91 3.81 1 1014.9
20260501231004 12 188 14.5 35.4 0.05 3.91 3.81 1 1014.8
20260501230904 12 189 14.5 35.4 0.05 3.91 3.81 1 1014.7
20260501230804 12 190 16.1 35.4 0.08 3.91 3.81 1 1014.6
20260501230704 12 190 16.1 35.4 0.08 3.91 3.81 1 1014.5
20260501230604 12 190 16.1 30.6 0.08 3.91 3.81 1 1014.5
20260501230504 12 189 16.1 30.6 0.08 3.91 3.81 1 1014.4
20260501230404 12 191 16.1 30.6 0.08 3.91 3.81 1 1014.4
20260501230304 12 192 16.1 30.6 0.10 3.91 3.81 1 1014.4
20260501230204 12 191 16.1 30.6 0.10 3.91 3.81 1 1014.3
20260501230104 12 189 16.1 30.6 0.10 3.91 3.81 1 1014.3
20260501230004 12 189 16.1 30.6 0.13 3.91 3.81 1 1014.3
20260501225904 12 189 16.1 30.6 0.13 3.91 3.81 1 1014.3
20260501225804 12 189 16.1 30.6 0.13 3.91 3.81 1 1014.4
20260501225704 12 189 14.5 30.6 0.13 3.91 3.81 1 1014.4
20260501225604 12 188 14.5 30.6 0.15 3.91 3.81 1 1014.3
20260501225504 12 188 14.5 30.6 0.15 3.91 3.81 1 1014.4
20260501225404 12 185 14.5 30.6 0.15 3.91 3.81 1 1014.4
20260501225306 12 185 14.5 30.6 0.18 3.91 3.81 1 1014.5
20260501225204 12 186 14.5 30.6 0.18 3.91 3.81 1 1014.4
20260501225104 12 188 14.5 30.6 0.18 3.91 3.81 1 1014.4
20260501225004 12 189 16.1 30.6 0.18 3.91 3.81 1 1014.4
20260501224925 12 188 16.1 30.6 0.18 3.91 3.81 1 1014.5
20260501224804 12 190 16.1 33.8 0.20 3.91 3.81 1 1014.4
20260501224704 12 191 17.7 33.8 0.20 3.91 3.81 1 1014.4
20260501224605 12 191 17.7 33.8 0.20 3.91 3.81 1 1014.4
20260501224504 12 192 17.7 33.8 0.20 3.91 3.81 1 1014.3
20260501224404 12 194 17.7 33.8 0.20 3.91 3.81 1 1014.4
20260501224304 12 195 17.7 37.0 0.18 3.89 3.78 1 1014.4
20260501224204 12 196 17.7 37.0 0.18 3.89 3.78 1 1014.4
20260501224104 12 196 16.1 37.0 0.20 3.89 3.78 1 1014.3
20260501224025 12 196 16.1 37.0 0.20 3.89 3.78 1 1014.2
20260501223925 12 196 16.1 37.0 0.20 3.89 3.78 1 1014.2
20260501223804 12 196 14.5 37.0 0.20 3.89 3.78 1 1014.0
20260501223704 12 194 14.5 37.0 0.20 3.89 3.78 1 1014.0
20260501223604 12 195 14.5 37.0 0.23 3.89 3.78 1 1013.9
20260501223504 13 193 14.5 37.0 0.23 3.89 3.78 1 1013.9
20260501223425 13 192 14.5 37.0 0.23 3.89 3.78 1 1013.8
20260501223304 13 190 12.9 35.4 0.23 3.89 3.78 1 1013.6
20260501223204 13 188 12.9 27.4 0.23 3.89 3.78 1 1013.7
20260501223125 13 187 12.9 27.4 0.23 3.89 3.78 1 1013.8
20260501223004 13 188 12.9 27.4 0.23 3.89 3.78 1 1013.9
20260501222904 13 187 14.5 27.4 0.23 3.89 3.78 1 1014.0
20260501222804 13 187 14.5 27.4 0.23 3.89 3.78 1 1014.0
20260501222704 13 188 14.5 27.4 0.23 3.89 3.78 1 1014.1
20260501222604 13 190 14.5 27.4 0.23 3.89 3.78 1 1014.1
20260501222504 12 189 14.5 27.4 0.23 3.89 3.78 1 1014.1
20260501222404 12 187 14.5 27.4 0.23 3.89 3.78 1 1014.1
20260501222305 12 187 14.5 27.4 0.23 3.89 3.78 1 1014.2
20260501222204 12 188 12.9 27.4 0.23 3.89 3.78 1 1014.2
20260501222104 12 186 12.9 27.4 0.23 3.89 3.78 1 1014.2
20260501222004 12 184 12.9 27.4 0.20 3.86 3.76 1 1014.3
20260501221904 12 186 12.9 27.4 0.20 3.86 3.76 1 1014.4
20260501221804 12 186 12.9 27.4 0.20 3.86 3.76 1 1014.5
20260501221704 12 185 11.3 27.4 0.20 3.86 3.76 1 1014.5
20260501221604 12 181 12.9 25.7 0.20 3.86 3.76 1 1014.6
20260501221504 12 182 12.9 25.7 0.20 3.86 3.76 1 1014.6
20260501221404 13 185 12.9 25.7 0.20 3.86 3.76 1 1014.7
20260501221304 13 183 12.9 30.6 0.20 3.86 3.76 1 1014.8
20260501221204 13 181 14.5 30.6 0.20 3.86 3.76 1 1014.7
20260501221104 13 180 14.5 30.6 0.20 3.86 3.76 1 1014.8
20260501221004 13 179 14.5 30.6 0.20 3.86 3.76 1 1014.8
20260501220904 13 176 14.5 30.6 0.20 3.86 3.76 1 1014.7
20260501220804 13 175 16.1 30.6 0.18 3.84 3.73 1 1014.6
20260501220704 13 175 16.1 30.6 0.18 3.84 3.73 1 1014.5
20260501220604 13 175 16.1 30.6 0.18 3.84 3.73 1 1014.5
20260501220504 13 175 16.1 30.6 0.18 3.84 3.73 1 1014.4
20260501220404 13 174 16.1 30.6 0.18 3.84 3.73 1 1014.3
20260501220304 13 174 16.1 29.0 0.15 3.81 3.71 1 1014.2
20260501220204 13 175 16.1 29.0 0.15 3.81 3.71 1 1014.1
20260501220004 13 178 16.1 32.2 0.13 3.78 3.68 1 1014.0
20260501215904 13 178 16.1 32.2 0.13 3.78 3.68 1 1014.0
20260501215804 13 176 16.1 32.2 0.13 3.78 3.68 1 1013.9
20260501215704 13 177 16.1 32.2 0.13 3.78 3.68 1 1013.8
20260501215625 13 177 16.1 32.2 0.10 3.76 3.66 1 1013.8
20260501215504 13 180 16.1 32.2 0.10 3.76 3.66 1 1013.8
20260501215404 13 179 16.1 32.2 0.10 3.76 3.66 1 1013.8
20260501215305 13 180 14.5 32.2 0.08 3.73 3.63 1 1013.7
20260501215225 13 179 14.5 32.2 0.08 3.73 3.63 1 1013.8
20260501215125 13 178 12.9 32.2 0.08 3.73 3.63 1 1013.9
20260501215004 13 178 12.9 27.4 0.08 3.73 3.63 1 1013.8
20260501214904 13 181 12.9 27.4 0.08 3.73 3.63 1 1013.9
20260501214804 13 182 12.9 32.2 0.05 3.71 3.61 1 1013.9
20260501214704 13 182 12.9 32.2 0.05 3.71 3.61 1 1013.9
20260501214604 13 182 12.9 32.2 0.05 3.71 3.61 1 1013.9
20260501214525 13 180 12.9 32.2 0.05 3.71 3.61 1 1014.0
20260501214404 13 180 12.9 32.2 0.05 3.71 3.61 1 1014.0
20260501214304 13 180 14.5 32.2 0.05 3.71 3.61 1 1014.0
20260501214204 13 183 14.5 32.2 0.05 3.71 3.61 1 1014.0
20260501214125 13 182 14.5 32.2 0.03 3.68 3.61 1 1013.9
20260501214025 13 181 14.5 32.2 0.03 3.68 3.58 1 1013.9
20260501213904 13 181 14.5 32.2 0.03 3.68 3.58 1 1013.8
20260501213804 13 183 14.5 30.6 0.03 3.68 3.58 1 1013.7
20260501213704 13 179 12.9 29.0 0.05 3.68 3.58 1 1013.7
20260501213604 13 178 12.9 29.0 0.03 3.66 3.56 1 1013.7
20260501213525 13 178 12.9 29.0 0.03 3.66 3.56 1 1013.7
20260501213404 13 179 14.5 29.0 0.03 3.66 3.56 1 1013.6
20260501213325 13 179 14.5 29.0 0.03 3.66 3.56 1 1013.6
20260501213204 13 178 14.5 29.0 0.03 3.66 3.56 1 1013.6
20260501213104 13 178 14.5 29.0 0.03 3.66 3.56 1 1013.5
20260501213004 13 178 14.5 29.0 0.03 3.66 3.56 1 1013.5
20260501212925 13 178 14.5 29.0 0.03 3.66 3.56 1 1013.5
20260501212804 13 176 14.5 30.6 0.03 3.66 3.56 1 1013.4
20260501212704 13 178 16.1 30.6 0.03 3.66 3.56 1 1013.4
20260501212604 13 180 16.1 30.6 0.03 3.66 3.56 1 1013.3
20260501212504 13 181 16.1 30.6 0.03 3.66 3.56 1 1013.2
20260501212425 13 180 14.5 30.6 0.03 3.66 3.56 1 1013.2
20260501212306 13 181 16.1 30.6 0.03 3.66 3.56 1 1013.2
20260501212204 13 181 16.1 30.6 0.03 3.66 3.56 1 1013.0
20260501212125 13 183 16.1 30.6 0.03 3.66 3.56 1 1013.0
20260501212004 13 183 16.1 30.6 0.03 3.66 3.56 1 1013.0
20260501211904 13 185 14.5 29.0 0.03 3.66 3.56 1 1012.9
20260501211804 13 186 14.5 29.0 0.03 3.66 3.56 1 1012.8
20260501211704 13 187 12.9 29.0 0.03 3.66 3.56 1 1012.8
20260501211604 13 186 12.9 29.0 0.03 3.66 3.56 1 1012.8
20260501211504 13 185 12.9 29.0 0.03 3.66 3.56 1 1012.8
20260501211404 13 186 12.9 29.0 0.03 3.66 3.56 1 1012.8
20260501211304 13 183 12.9 27.4 0.03 3.66 3.56 1 1012.7
20260501211204 13 182 12.9 27.4 0.03 3.66 3.56 1 1012.6
20260501211104 13 182 12.9 27.4 0.03 3.66 3.56 1 1012.7
20260501211004 13 185 11.3 27.4 0.03 3.66 3.56 1 1012.7
20260501210904 13 183 11.3 27.4 0.03 3.66 3.56 1 1012.7
20260501210804 13 183 11.3 27.4 0.03 3.66 3.56 1 1012.8
20260501210704 13 183 12.9 27.4 0.03 3.66 3.56 1 1012.8
20260501210604 13 184 12.9 25.7 0.03 3.66 3.56 1 1012.9
20260501210504 13 186 12.9 25.7 0.03 3.66 3.56 1 1012.9
20260501210404 13 189 14.5 25.7 0.05 3.66 3.56 1 1012.9
20260501210325 13 191 14.5 27.4 0.05 3.66 3.56 1 1012.9
20260501210204 13 192 14.5 27.4 0.05 3.66 3.56 1 1012.8
20260501210104 13 194 12.9 27.4 0.05 3.66 3.56 1 1012.8
20260501210004 13 193 14.5 27.4 0.05 3.66 3.56 1 1012.8
20260501205904 13 193 14.5 27.4 0.05 3.66 3.56 1 1012.8
20260501205804 13 193 14.5 27.4 0.05 3.66 3.56 1 1012.7
20260501205704 13 193 14.5 27.4 0.05 3.66 3.56 1 1012.6
20260501205604 13 191 14.5 27.4 0.05 3.66 3.56 1 1012.4
20260501205525 13 191 14.5 27.4 0.05 3.66 3.56 1 1012.2
20260501205404 13 189 12.9 27.4 0.05 3.66 3.56 1 1012.1
20260501205306 13 189 12.9 25.7 0.08 3.66 3.56 1 1012.0
20260501205225 13 189 12.9 25.7 0.08 3.66 3.56 1 1011.9
20260501205104 13 186 12.9 25.7 0.08 3.66 3.56 1 1012.0
20260501205004 13 184 12.9 25.7 0.08 3.66 3.56 1 1012.1
20260501204904 13 183 12.9 25.7 0.08 3.66 3.56 1 1012.2
20260501204804 13 184 12.9 25.7 0.08 3.66 3.56 1 1012.4
20260501204704 13 184 12.9 25.7 0.08 3.66 3.56 1 1012.4
20260501204604 13 182 12.9 25.7 0.08 3.66 3.56 1 1012.4
20260501204505 13 182 12.9 25.7 0.08 3.66 3.56 1 1012.5
20260501204404 13 183 12.9 25.7 0.10 3.66 3.56 1 1012.5
20260501204304 13 182 12.9 29.0 0.10 3.66 3.56 1 1012.5
20260501204204 13 186 12.9 29.0 0.10 3.66 3.56 1 1012.5
20260501204104 13 188 12.9 29.0 0.10 3.66 3.56 1 1012.6
20260501204004 13 189 14.5 29.0 0.10 3.66 3.56 1 1012.5
20260501203925 13 188 14.5 29.0 0.13 3.66 3.56 1 1012.5
20260501203804 13 188 14.5 29.0 0.13 3.66 3.56 1 1012.4
20260501203704 13 192 14.5 29.0 0.10 3.63 3.53 1 1012.3
20260501203604 13 194 14.5 29.0 0.10 3.63 3.53 1 1012.2
20260501203504 13 197 14.5 29.0 0.10 3.63 3.53 1 1012.0
20260501203404 13 200 14.5 29.0 0.13 3.63 3.53 1 1011.9
20260501203304 13 202 14.5 27.4 0.13 3.63 3.53 1 1011.7
20260501203204 13 203 14.5 27.4 0.13 3.63 3.53 1 1011.6
20260501203104 13 204 14.5 27.4 0.13 3.63 3.53 1 1011.5
20260501203025 13 205 14.5 27.4 0.13 3.63 3.53 1 1011.4
20260501202904 13 207 14.5 27.4 0.13 3.63 3.53 1 1011.4
20260501202804 13 206 14.5 27.4 0.13 3.63 3.53 1 1011.3
20260501202704 13 206 14.5 27.4 0.13 3.63 3.53 1 1011.3
20260501202604 13 205 14.5 27.4 0.13 3.63 3.53 1 1011.3
20260501202525 13 204 14.5 27.4 0.13 3.63 3.53 1 1011.4
20260501202404 13 201 14.5 27.4 0.13 3.63 3.53 1 1011.5
20260501202306 13 202 14.5 27.4 0.13 3.63 3.53 1 1011.7
20260501202204 13 200 14.5 27.4 0.13 3.63 3.53 1 1011.7
20260501202104 13 199 14.5 27.4 0.13 3.63 3.53 1 1011.8
20260501202004 13 197 14.5 27.4 0.13 3.63 3.53 1 1011.9
20260501201904 13 199 14.5 27.4 0.13 3.63 3.53 1 1011.9
20260501201804 13 200 12.9 27.4 0.13 3.63 3.53 1 1012.0
20260501201704 13 201 14.5 27.4 0.13 3.63 3.53 1 1012.0
20260501201604 13 202 14.5 27.4 0.13 3.63 3.53 1 1011.8
20260501201504 13 204 14.5 27.4 0.13 3.63 3.53 1 1011.8
20260501201425 13 203 14.5 27.4 0.13 3.63 3.53 1 1011.8
20260501201304 13 203 12.9 24.1 0.13 3.63 3.53 1 1012.0
20260501201204 13 204 14.5 25.7 0.13 3.63 3.53 1 1012.0
20260501201104 14 204 12.9 25.7 0.13 3.63 3.53 1 1012.1
20260501201025 14 206 12.9 25.7 0.13 3.66 3.53 1 1012.2
20260501200904 14 207 12.9 25.7 0.13 3.66 3.53 1 1012.1
20260501200804 14 208 12.9 25.7 0.13 3.66 3.53 1 1012.2
20260501200704 14 207 12.9 25.7 0.13 3.66 3.53 1 1012.1
20260501200625 14 208 12.9 25.7 0.13 3.66 3.53 1 1012.0
20260501200504 14 206 12.9 25.7 0.13 3.66 3.53 1 1011.9
20260501200404 14 208 12.9 25.7 0.10 3.63 3.51 1 1011.8
20260501200325 13 207 12.9 25.7 0.10 3.63 3.51 1 1011.8
20260501200204 14 207 12.9 24.1 0.10 3.63 3.51 1 1011.9
20260501200104 14 205 12.9 24.1 0.10 3.63 3.51 1 1012.0
20260501200004 14 204 12.9 24.1 0.10 3.63 3.51 1 1012.0
20260501195904 13 201 12.9 24.1 0.10 3.63 3.51 1 1012.1
20260501195804 13 198 12.9 24.1 0.10 3.63 3.51 1 1012.1
20260501195704 13 196 12.9 24.1 0.10 3.63 3.51 1 1012.2
20260501195604 13 195 12.9 27.4 0.10 3.63 3.51 1 1012.2
20260501195504 13 193 12.9 27.4 0.10 3.63 3.51 1 1012.3
20260501195425 13 190 12.9 27.4 0.10 3.63 3.51 1 1012.4
20260501195306 13 189 14.5 32.2 0.08 3.61 3.48 1 1012.4
20260501195204 13 186 14.5 32.2 0.08 3.61 3.48 1 1012.5
20260501195104 13 186 14.5 32.2 0.08 3.61 3.48 1 1012.4
20260501195025 13 185 12.9 32.2 0.08 3.61 3.48 1 1012.5
20260501194904 13 184 14.5 32.2 0.08 3.61 3.48 1 1012.5
20260501194825 13 185 14.5 32.2 0.08 3.61 3.48 1 1012.5
20260501194704 13 183 14.5 32.2 0.08 3.61 3.48 1 1012.7
20260501194604 13 182 14.5 32.2 0.08 3.61 3.48 1 1012.8
20260501194504 13 181 12.9 32.2 0.08 3.61 3.48 1 1012.9
20260501194404 13 181 12.9 32.2 0.05 3.58 3.45 1 1013.1
20260501194304 13 180 11.3 25.7 0.05 3.58 3.45 1 1013.3
20260501194204 13 179 11.3 25.7 0.05 3.58 3.45 1 1013.3
20260501194104 13 175 11.3 25.7 0.05 3.58 3.45 1 1013.3
20260501194004 13 172 11.3 25.7 0.05 3.58 3.45 1 1013.4